Theta_e
311 311 310 310 310 310 311 310 310 310 311 311 311 311 311 310 303 310 310 310 312 311 311 313 314 314 316 317 319 320 319 319 320 321 323 324 323 327 328 328 328 327 328 329 327
311 311 311 310 310 310 310 310 310 311 311 310 311 311 311 310 311 311 311 312 313 311 310 314 316 316 316 317 319 320 320 320 321 322 321 322 323 323 323 324 325 325 325 326 327
310 311 311 310 310 310 310 310 310 311 310 310 311 312 311 308 316 316 315 311 313 309 309 315 316 316 316 318 318 320 320 320 321 322 322 322 321 322 322 322 322 323 325 326 327
307 307 309 312 312 310 310 309 310 310 311 311 311 311 309 312 325 322 314 313 311 308 310 314 317 316 317 317 319 319 320 320 320 322 321 321 321 321 321 321 321 321 322 323 324
305 305 306 307 310 312 310 309 309 309 310 310 310 310 312 317 316 321 317 315 309 310 314 320 318 317 317 318 319 319 319 320 320 320 321 320 320 320 320 321 320 320 321 321 322
301 302 304 307 307 310 310 308 308 308 309 309 310 309 313 316 317 320 316 312 313 314 318 317 318 318 318 318 319 320 320 320 320 320 320 319 319 319 319 320 320 321 321 321 322
300 301 302 306 307 308 309 308 306 308 308 310 309 312 316 317 312 319 315 314 314 315 319 317 317 319 319 319 320 320 319 319 320 319 319 319 319 319 320 320 320 321 322 322 322
300 301 302 306 307 308 308 309 305 306 308 309 308 314 321 317 315 316 317 317 320 320 318 316 318 320 320 319 320 319 319 318 319 320 319 319 318 320 321 321 320 321 321 322 323
302 303 305 306 307 308 308 309 306 310 310 309 314 318 323 315 314 312 319 319 317 316 316 319 319 318 318 318 319 320 319 319 319 320 320 319 319 320 321 321 321 321 321 322 322
306 305 305 307 307 307 308 310 313 310 311 316 317 322 323 322 317 312 318 318 315 317 318 318 318 318 317 318 318 318 319 319 319 320 320 319 318 319 319 321 321 321 321 322 323
308 306 306 306 307 306 309 314 321 323 321 323 324 321 320 319 314 312 319 319 317 318 318 318 318 318 318 318 319 318 319 319 320 320 320 319 320 320 320 320 321 322 323 324 324
308 307 306 307 306 307 308 316 320 319 320 324 323 322 320 319 318 316 315 320 318 318 318 319 320 320 320 320 319 319 319 319 319 319 319 319 319 320 321 322 322 322 324 324 325
308 306 307 307 307 307 312 315 315 318 319 320 321 320 319 320 319 317 317 319 318 318 319 319 320 320 320 319 319 319 319 319 319 319 320 320 320 321 321 321 322 323 324 324 324
309 306 306 307 308 315 316 316 316 318 323 322 319 319 318 319 319 319 318 319 318 319 320 320 320 320 320 319 318 319 319 319 319 319 319 320 321 323 323 323 324 324 324 323 323
308 307 307 305 315 318 317 316 316 320 338 324 321 318 320 318 319 318 318 318 319 319 320 319 321 320 320 319 319 319 318 318 318 319 320 320 321 320 322 322 324 325 325 325 325
308 308 310 313 313 317 317 318 320 326 336 324 321 320 319 319 319 320 319 319 318 318 319 318 318 318 319 319 319 319 318 319 319 319 322 320 321 322 324 325 326 327 326 325 324
309 310 310 314 319 315 315 319 326 330 327 324 322 321 321 320 319 320 320 320 318 318 319 319 318 318 318 318 319 319 320 321 323 324 325 323 324 326 327 327 326 325 325 326 325
310 312 316 315 315 314 316 321 330 331 326 322 322 322 321 321 320 320 320 321 319 318 320 322 323 320 320 320 320 320 321 322 325 326 324 326 328 327 327 326 327 326 325 325 324
312 318 319 318 317 316 322 328 330 325 323 323 322 324 323 321 322 322 322 321 321 321 323 323 322 321 323 322 322 320 321 321 325 328 329 326 326 326 328 327 327 325 324 325 325
311 320 319 318 319 320 327 328 324 321 321 321 324 323 326 327 325 324 325 323 322 320 321 321 325 322 322 322 323 323 323 325 327 337 331 326 327 327 328 327 327 325 324 323 323
315 325 321 320 320 323 327 323 321 320 320 322 322 322 322 323 323 323 324 323 323 322 322 323 324 323 322 322 323 323 325 326 327 326 332 330 327 326 327 328 328 326 324 323 322
320 327 320 320 326 328 326 322 315 320 319 320 320 321 321 322 322 323 323 324 320 320 322 321 325 326 323 320 320 322 323 324 332 330 329 331 333 326 326 324 325 324 323 322 321
321 320 319 321 329 328 323 320 319 319 319 320 320 319 320 320 321 320 320 320 319 319 322 322 323 325 320 317 323 325 324 326 327 329 331 333 327 322 324 322 323 322 322 321 320
320 322 320 321 320 322 322 321 321 320 317 318 319 319 319 320 318 319 319 319 317 318 317 317 319 320 323 319 321 321 322 322 324 326 328 327 324 322 322 324 322 323 321 320 319
320 321 318 324 322 319 317 320 318 318 318 317 318 317 318 319 318 319 318 317 317 318 316 317 320 319 318 316 316 317 317 317 319 320 324 321 319 319 320 321 319 320 319 318 318
318 318 319 317 317 317 314 320 318 318 316 318 318 317 317 318 318 319 317 317 317 316 316 316 321 319 319 317 317 318 318 317 317 318 318 317 318 319 318 317 318 319 319 318 317
313 315 316 315 319 317 320 319 317 316 316 315 316 316 316 316 315 315 315 316 316 316 316 319 320 319 319 317 320 320 317 317 318 319 318 317 318 317 318 318 318 317 316 315 316
Wind_Speed
18 17 16 13 12 12 12 11 11 11 11 12 12 12 14 15 13 11 14 13 11 26 14 11 12 16 17 15 18 15 12 15 20 18 17 18 10 14 7 11 7 1 9 7 6
20 19 16 14 12 11 12 11 11 11 11 11 12 12 13 14 14 23 25 22 18 14 12 13 12 14 13 14 15 14 12 20 14 20 16 17 14 13 2 16 8 12 12 15 4
22 20 18 15 13 11 10 11 10 10 10 11 11 12 11 9 11 7 15 28 22 17 18 17 15 13 15 15 17 16 17 17 18 17 6 9 11 5 8 11 9 14 14 16 14
24 23 22 18 15 12 10 10 10 10 10 10 10 11 9 6 2 5 6 24 19 13 16 19 17 15 16 18 18 19 20 19 22 10 2 12 11 12 12 15 16 14 16 10 11
22 22 23 21 18 15 12 11 9 9 10 9 8 8 5 8 11 7 10 14 14 15 19 16 15 15 17 18 19 20 19 20 17 18 9 10 14 16 16 15 11 12 13 9 9
21 21 22 21 21 17 14 12 11 10 9 7 7 5 6 11 5 9 12 14 15 19 18 17 13 14 15 19 19 16 19 17 19 15 13 15 17 16 17 15 15 13 14 10 12
20 21 21 21 21 20 17 14 12 11 8 6 6 5 10 17 2 8 12 14 17 17 13 15 18 14 12 15 19 16 18 12 16 20 16 16 19 19 16 17 15 16 15 15 15
21 20 22 21 21 20 18 18 12 12 9 5 5 6 8 5 19 11 13 14 15 13 15 12 11 11 15 13 10 13 15 16 19 20 20 18 19 18 20 21 18 13 13 13 13
21 22 22 24 24 21 19 17 10 11 10 5 5 10 8 4 10 14 15 15 10 12 11 7 6 13 15 14 14 14 14 20 22 21 22 21 20 15 20 6 13 13 12 14 14
23 25 25 27 25 22 18 9 6 3 4 8 14 9 11 10 11 16 17 14 9 10 10 9 8 13 14 13 13 17 19 19 17 14 13 14 14 15 14 12 12 12 13 12 11
25 26 29 25 22 18 14 5 4 5 13 9 10 8 4 4 5 13 15 15 12 10 13 14 11 14 17 18 19 20 21 16 14 13 15 18 14 14 12 15 15 16 16 15 13
27 30 27 23 20 14 9 6 9 3 6 22 17 15 11 1 7 10 18 13 13 14 15 14 16 17 18 18 18 18 18 17 17 19 16 16 17 15 18 19 17 16 13 13 14
29 33 26 22 17 14 18 19 14 7 5 2 8 9 12 11 11 13 16 16 13 16 17 17 18 16 18 16 18 16 15 16 19 19 19 17 16 16 20 19 18 17 14 13 12
31 33 24 20 8 11 11 21 15 4 4 11 8 6 3 5 9 19 20 15 14 17 16 16 18 19 12 12 13 19 16 19 19 17 14 17 16 18 19 20 22 21 19 16 13
33 30 20 9 12 6 6 14 14 5 4 13 10 8 6 10 5 11 13 12 18 16 11 15 16 16 15 16 19 18 17 17 19 16 16 19 13 15 16 17 18 16 16 14 13
35 22 11 4 7 10 1 4 3 6 4 7 8 9 10 13 2 10 8 6 11 14 16 17 21 16 9 12 10 8 14 18 15 15 16 19 18 17 17 18 17 17 14 13 9
33 13 8 9 6 4 6 7 5 5 13 2 6 9 14 10 9 11 12 13 10 8 12 16 17 17 17 14 15 14 12 10 14 14 15 21 18 15 14 12 10 7 7 14 11
25 8 7 10 5 3 6 7 7 9 3 4 4 6 2 5 5 4 7 11 14 14 10 10 10 12 9 11 12 16 11 10 19 15 18 22 14 14 15 16 15 10 5 13 10
15 9 7 1 2 5 7 6 2 1 4 3 2 2 2 2 3 3 8 10 12 9 10 7 16 13 8 15 16 11 11 14 16 15 15 15 23 20 10 13 18 9 7 7 9
13 13 5 0 3 6 6 8 2 4 1 1 1 0 2 3 4 3 3 5 4 2 3 7 13 11 15 12 18 12 12 6 4 5 13 13 13 10 14 12 9 7 2 5 6
5 3 5 1 2 5 7 1 8 8 6 3 5 1 1 2 4 4 4 0 7 6 6 9 10 13 14 14 18 16 11 11 11 12 7 11 10 2 10 13 13 4 4 6 6
8 2 5 4 6 6 2 5 4 4 2 2 3 7 4 1 3 4 4 1 3 4 5 4 4 10 17 19 21 19 19 17 6 10 10 12 8 14 9 7 7 10 8 5 7
5 2 4 5 4 8 6 3 2 1 1 4 3 2 3 2 4 8 2 9 6 7 5 7 3 7 9 12 8 7 13 11 12 7 8 10 11 7 5 10 14 13 12 13 14
5 3 4 5 2 7 5 2 3 5 5 2 7 5 6 6 7 5 6 4 1 3 6 5 9 13 13 17 18 18 13 13 12 3 5 13 18 16 12 11 15 14 9 16 14
4 3 3 4 7 7 2 3 3 1 2 0 3 1 7 4 7 10 8 7 3 11 3 3 9 15 16 17 19 23 24 21 20 22 18 22 21 21 18 17 12 15 11 10 14
5 4 4 2 4 6 4 3 4 5 2 1 2 5 5 5 10 14 14 12 11 8 7 3 9 13 19 19 21 24 24 23 22 23 22 23 22 19 14 12 7 7 10 12 15
9 4 4 1 4 5 3 6 3 3 2 3 7 7 7 10 12 12 13 14 13 11 7 5 3 6 14 18 13 15 18 19 13 17 20 15 11 11 9 12 11 11 13 16 17
Wind_Direction
356 348 339 327 315 305 300 293 291 292 293 294 296 301 301 304 295 271 250 225 237 236 275 268 222 225 227 245 236 222 246 247 250 257 265 261 262 250 208 262 301 278 235 131 103
360 355 347 339 325 312 301 297 293 289 289 293 295 298 303 310 298 264 241 243 252 225 233 236 217 216 218 225 229 227 230 244 246 248 264 260 265 278 222 250 239 268 268 281 245
359 358 353 348 340 322 309 299 293 288 287 288 294 298 306 326 274 253 218 220 232 233 224 243 236 210 228 232 224 219 243 247 244 256 266 307 279 272 294 262 260 264 245 239 238
360 360 356 351 345 335 319 303 294 291 287 286 292 301 304 288 281 89 147 196 213 217 219 245 237 226 226 230 232 228 237 246 272 277 232 265 255 267 241 257 260 254 273 301 320
354 355 355 355 347 339 329 315 295 289 284 283 290 304 309 228 256 162 165 189 194 198 209 232 222 229 225 237 234 232 240 248 246 265 252 257 254 253 247 239 241 254 274 256 275
350 350 351 349 348 340 332 320 305 295 290 289 297 296 258 255 91 140 160 167 184 190 216 228 227 230 242 239 249 234 245 253 269 249 255 248 250 248 248 251 250 231 236 214 240
342 344 344 343 342 340 333 320 302 295 289 291 291 287 266 245 297 146 172 183 189 206 224 231 248 259 243 276 263 255 250 250 246 255 236 243 247 247 253 258 225 239 233 237 244
339 337 336 335 334 332 329 323 294 288 284 284 263 254 265 240 239 244 191 201 213 218 243 246 247 276 265 271 270 261 244 258 248 236 233 237 253 251 239 228 222 236 233 254 237
338 337 331 329 326 323 321 316 291 283 267 241 259 218 256 161 215 214 213 220 211 225 235 293 265 248 249 248 256 233 248 244 246 249 225 215 243 253 248 303 198 225 237 246 245
335 333 329 322 318 316 316 317 306 261 216 231 257 260 257 244 186 211 211 221 190 214 219 218 236 235 236 232 237 241 224 238 261 242 194 233 246 243 270 200 233 233 255 256 245
334 331 325 318 309 311 321 299 225 196 223 226 207 246 117 143 113 195 203 211 203 220 226 217 236 235 232 228 253 270 285 297 290 236 198 214 229 251 264 262 218 216 217 227 227
334 332 323 311 304 298 289 236 241 9 300 226 262 252 272 245 197 214 187 206 219 227 221 242 226 249 254 255 253 254 266 272 282 291 289 280 267 256 256 259 261 258 242 242 231
335 336 323 313 300 274 218 228 268 316 261 259 226 252 244 211 251 194 191 203 214 225 240 232 246 246 223 261 267 258 264 272 273 280 281 274 262 268 262 256 259 262 257 239 257
336 339 325 314 282 218 212 227 223 169 273 164 196 193 247 255 247 261 181 214 235 240 232 246 249 260 241 239 263 273 246 253 261 266 266 266 271 256 252 242 229 231 230 234 230
337 340 322 264 313 237 166 174 196 193 268 174 130 129 166 192 127 231 189 208 245 241 244 261 254 256 259 277 281 264 258 269 284 281 280 262 265 266 263 257 253 240 227 220 205
337 338 315 295 232 282 163 111 159 234 243 180 133 160 174 208 190 141 209 220 243 269 286 289 301 292 289 279 320 321 299 283 261 266 257 259 256 260 261 262 259 234 212 200 191
334 324 280 280 291 227 201 203 236 232 236 160 147 172 177 180 169 190 189 202 217 218 246 261 260 275 287 264 263 269 255 265 253 242 248 243 244 245 274 335 330 311 70 104 104
329 289 269 236 270 263 242 225 242 216 64 85 346 315 206 134 184 164 213 214 206 246 266 271 275 239 278 271 282 283 276 267 281 285 291 314 290 292 329 310 300 261 126 126 143
321 277 237 222 260 210 245 246 254 41 18 75 60 254 202 164 345 327 269 246 225 232 260 291 255 291 353 301 312 290 270 293 307 293 271 262 273 272 1 352 351 180 185 139 102
320 289 88 43 164 252 266 254 152 38 333 54 92 40 282 344 289 343 249 360 312 146 130 274 285 276 286 291 283 281 303 316 247 267 272 271 292 298 353 330 15 329 357 284 66
276 249 116 206 220 242 246 8 91 64 355 332 126 201 100 348 321 325 273 38 328 300 270 260 261 278 279 264 265 267 224 246 256 262 255 272 271 360 39 354 344 334 323 17 336
293 266 111 208 247 235 205 20 346 78 147 257 293 224 169 208 296 219 245 341 6 326 292 290 281 279 280 287 275 267 265 260 235 237 240 259 264 288 70 17 343 329 347 323 305
281 356 114 207 263 296 99 124 337 320 332 321 303 94 127 55 268 239 309 69 35 344 25 4 263 299 291 287 53 10 345 356 321 275 242 268 261 303 2 337 312 298 303 308 300
280 271 147 225 299 319 25 229 128 113 279 350 296 326 262 219 221 262 280 90 78 48 77 338 270 265 271 284 302 285 248 258 255 231 281 262 280 286 297 199 247 253 282 284 292
253 51 5 342 69 340 326 22 287 213 121 354 256 36 328 313 292 264 246 275 249 128 247 225 268 270 274 280 280 284 284 279 260 259 260 278 281 286 290 281 291 29 291 281 288
327 346 340 301 316 284 151 144 333 90 301 312 243 4 1 296 305 309 316 298 283 256 250 248 261 284 284 285 274 271 271 271 269 269 265 268 270 273 313 309 9 337 302 280 281
4 270 271 246 197 260 55 40 36 20 217 357 357 327 297 328 328 306 299 289 270 260 252 236 240 292 278 291 303 275 264 270 285 298 274 273 312 340 351 360 343 305 312 322 317